This is the latest recevied weather packets stored in our database for station/object WP3OF-3. If no packets are shown the sender has not sent any weather packets the latest 10 day(s).
| Time | Temp. | Humidity | Pressure | Rain* | Wind** | Luminosity | Snow |
|---|---|---|---|---|---|---|---|
| 1777903761 | 29.44° C | 66% | 1019.6 hPa | 0 mm | - | - | - |
| 1777903458 | 28.89° C | 60% | 1019.5 hPa | 0 mm | - | - | - |
| 1777903154 | 28.89° C | 62% | 1019.5 hPa | 0 mm | - | - | - |
| 1777902851 | 28.89° C | 67% | 1019.7 hPa | 0 mm | - | - | - |
| 1777902549 | 28.33° C | 63% | 1019.4 hPa | 0 mm | - | - | - |
| 1777902245 | 27.78° C | 66% | 1019.7 hPa | 0 mm | - | - | - |
| 1777901943 | 27.78° C | 62% | 1019.5 hPa | 0 mm | - | - | - |
| 1777901640 | 27.78° C | 64% | 1019.5 hPa | 0 mm | - | - | - |
| 1777901337 | 27.78° C | 65% | 1019.7 hPa | 0 mm | - | - | - |
| 1777901035 | 27.78° C | 70% | 1019.5 hPa | 0 mm | - | - | - |
| 1777900732 | 26.67° C | 70% | 1019.4 hPa | 0 mm | - | - | - |
| 1777900429 | 26.67° C | 73% | 1019.3 hPa | 0 mm | - | - | - |
| 1777900126 | 26.67° C | 75% | 1019.3 hPa | 0 mm | - | - | - |
| 1777899823 | 26.11° C | 72% | 1019.5 hPa | 0 mm | - | - | - |
| 1777899520 | 25.56° C | 74% | 1019.3 hPa | 0 mm | - | - | - |
| 1777899217 | 25.56° C | 75% | 1019.4 hPa | 0 mm | - | - | - |
| 1777898915 | 24.44° C | 81% | 1019.4 hPa | 0 mm | - | - | - |
| 1777898612 | 24.44° C | 83% | 1019.5 hPa | 0 mm | - | - | - |
| 1777898309 | 24.44° C | 83% | 1019.4 hPa | 0 mm | - | - | - |
| 1777898006 | 23.33° C | 86% | 1019.5 hPa | 0 mm | - | - | - |
| 1777897702 | 22.78° C | 93% | 1019.5 hPa | 0 mm | - | - | - |
| 1777897400 | 22.78° C | 94% | 1019.5 hPa | 0 mm | - | - | - |
| 1777897095 | 22.22° C | 95% | 1019.4 hPa | 0 mm | - | - | - |
| 1777896791 | 22.22° C | 95% | 1019.5 hPa | 0 mm | - | - | - |
| 1777896488 | 22.22° C | 96% | 1019.3 hPa | 0 mm | - | - | - |
* Rain latest hour (hover to see other rain measurements)
** Current wind speed in m/s (hover to see current wind gust speed)